User: anonymous   Login
Location: Oshawa
(43.9000°N, 78.8670°W)
Time: 18:32:02
(UTC-04:00)
Language:

Cosmos 1953 Rocket - Orbit

View from above orbital plane
View from above orbital plane
View from above satellite
View from above satellite

Ground track
Ground track

The orbit data is extracted from the following two-line orbital elements,

1 19211U 88050B   18142.81083160 +.00000062 +00000-0 +45409-5 0  9993
2 19211 082.5280 244.7651 0023388 079.3313 037.1331 14.83006929596044
Epoch (UTC): 22 May 2018 19:27:35
Eccentricity: 0.0023388
inclination: 82.5280°
perigee height: 603 km
apogee height: 636 km
right ascension of ascending node: 244.7651°
argument of perigee: 79.3313°
revolutions per day: 14.83006929
mean anomaly at epoch: 37.1331°
orbit number at epoch: 59604

The dashed part of the orbit path shows where the satellite is in the earth's shadow,  

DLR